Regional Weather Roundup
Issued by NWS

Home | Current Version | Previous Version | Graphics & Text | Print | Product List | Glossary On
Versions: 1 2 3 4 5 6 7 8 9 10 11 12 13 14 15 16 17 18 19 20 21 22 23 24 25 26 27 28
000
ASUS45 KCYS 280410
RWRWY

WYOMING REGIONAL WEATHER ROUNDUP
NATIONAL WEATHER SERVICE CHEYENNE WY
1000 PM MDT SAT AUG 27 2016

NOTE:  "FAIR" INDICATES FEW OR NO CLOUDS BELOW 12,000 FEET
WITH NO SIGNIFICANT WEATHER AND/OR OBSTRUCTIONS TO VISIBILITY.

WYZ001-280500-
YELLOWSTONE NATIONAL PARK

CITY           SKY/WX    TMP DP  RH WIND       PRES   REMARKS
LK YELLOWSTONE   N/A     46  30  53 CALM      30.24R
W YELLOWSTONE  NOT AVBL

$$
WYZ002>013-054>058-071-098>099-280500-
NORTHERN WYOMING

CITY           SKY/WX    TMP DP  RH WIND       PRES   REMARKS
JACKSON        FAIR      57  23  26 NW3       30.14S
CODY           FAIR      72  28  20 W9        30.00R
GREYBULL       FAIR      69  34  27 E8        29.90R
WORLAND        FAIR      69  27  20 SE8       29.92R
SHERIDAN       FAIR      55  43  63 CALM      29.91R
BUFFALO        FAIR      64  33  31 SW8       30.00R
GILLETTE       FAIR      53  40  61 S3        29.96R
HULETT         FAIR      66  46  48 CALM      29.97R
NEWCASTLE      FAIR      68  36  30 CALM      29.98R

$$
WYZ014>020-022>026-101>103-280500-
CENTRAL WYOMING

CITY           SKY/WX    TMP DP  RH WIND       PRES   REMARKS
BIG PINEY      FAIR      50  29  44 NW9       30.20R
PINEDALE       FAIR      50  28  43 W5        30.21R
DUBOIS         FAIR      55  19  24 W7        30.18R
LANDER         FAIR      69  26  20 SW14      30.04R
RIVERTON       FAIR      65  30  27 N3        30.04R
CASPER         FAIR      54  42  64 CALM      30.04R
DOUGLAS        FAIR      57  36  45 CALM      30.04R

$$
WYZ021-027>030-104>119-280500-
SOUTHERN WYOMING

CITY           SKY/WX    TMP DP  RH WIND       PRES   REMARKS
EVANSTON       FAIR      57  20  23 SW10      30.23R
FORT BRIDGER   FAIR      60  21  22 S8        30.25R
ROCK SPRINGS   FAIR      64  18  17 SW9       30.19R
DIXON          FAIR      56  28  33 CALM      30.23R
RAWLINS        FAIR      62  25  24 SW5       30.19R
SARATOGA       FAIR      54  30  40 S14       30.22R
LARAMIE        FAIR      56  32  40 S9        30.23R
CHEYENNE       FAIR      59  40  49 SW7       30.16R
TORRINGTON     FAIR      67  46  47 SE14      30.00R
PINE BLUFFS    FAIR      61  45  55 S7        30.11R

$$




USA.gov is the U.S. government's official web portal to all federal, state and local government web resources and services.